Showing default

TELSTAR 2 (A-41), 573

Orbit data source: Space-Track

TELSTAR 2 (A-41), 573 is a payload satellite owned by AT&T (US) in HEO that was launched on Tue, 07 May 1963 UTC via a THOR DELTA B launch vehicle from the Air Force Eastern Test Range (AFETR). Payload-class satellites include a variety of spacecraft equipped with specific instruments for various scientific and technological missions. These include communications satellites like Starlink; space stations such as the ISS; scientific satellites like the Hubble; Earth observation satellites from companies like Planet Labs, Umbra, and HawkEye 360; GPS; miniature CubeSats for education and research; and military/defense satellites.

Loading next visibility...
Identifier
573, 1963-013A
Orbit
HEO
Country
Flag of USUS
Related business
Manufacturer
AT&T/BTL
Mission
Spacecraft
Bus & Motor
TSX, Unknown motor
Mass
79 kg wet, 79 kg dry
Launch date (UTC)
1963-05-07 (63 years ago)
Launch vehicle
THOR DELTA B
Launch site
Air Force Eastern Test Range (AFETR)
Object type
Payload
Rocket body
Debris
Shape & HBR
SPHERE + ANT, 1.1 m
Radar Cross Section
Medium (>0.1 m² and <1 m²)

Expand to show TLE details & history
Last TLE update: 2 days ago

TLE from 2 days ago
0 TELSTAR 2 (A-41)
1 00573U 63013A   26264.27919981 -.00000010  00000-0 -49325-4 0  9994
2 00573  42.7606 243.1723 4013622 267.8846 285.1868  6.39280023592291
Epoch: 2026-09-21T06:42Z
TLE epoch observation values (Epoch: 2026-09-21T06:42:02.863Z)
Latitude
21.46787°
Longitude
-62.59763°
Altitude
6,536.732 km
Speed
5.407 km/s
True Right ascension
02h 32m 18s
True Declination
21° 24' 12"
Sunlit
Object was in daylight at epoch
Visualization orbit readout
Latitude
Unknown
Longitude
Unknown
Altitude
Unknown
Speed
Unknown
Apparent Right ascension
Unknown
Apparent Declination
Unknown
Sunlit
N/A
Visualization observer readout
Local Sidereal Time
16:13:35
Azimuth
Unknown
Elevation
Unknown
Doppler factor
Unknown
Orbital elements
Apogee altitude
10,809.236 km
Perigee altitude
964.013 km
Semi-major axis
12,264.761 km
Eccentricity
0.40136
Inclination
42.7606°
RAAN
243.1723°
Arg. of periapsis
267.8846°
True anomaly
239.54814°
Mean anomaly
285.1868°
Eccentric anomaly
262.39283°
Mean motion
1.59792 °/min
Orbital period
225.29 mins
BSTAR
-0.000049325
Loading maneuver chart data...
Computing Atmospheric mass density...
Loading historical data...
Loading historical data...
Loading historical data...
Loading historical data...
Loading historical data...
Loading historical data...
Loading historical data...
Other satellites on launch #13 in the year 1963 (1963-05-07 UTC)

Documentation

Showing up to 5 results
|